This is the latest recevied weather packets stored in our database for station/object WE8M. If no packets are shown the sender has not sent any weather packets the latest 1 day(s).
| Time | Temp. | Humidity | Pressure | Rain* | Wind** | Luminosity | Snow |
|---|---|---|---|---|---|---|---|
| 1778038232 | 14.44° C | 95% | 1007.6 hPa | 1.78 mm | - | - | - |
| 1778037930 | 14.44° C | 95% | 1007.6 hPa | 4.83 mm | - | - | - |
| 1778037627 | 14.44° C | 95% | 1007.9 hPa | 7.11 mm | - | - | - |
| 1778037324 | 14.44° C | 95% | 1007.7 hPa | 6.1 mm | - | - | - |
| 1778037021 | 14.44° C | 95% | 1007.9 hPa | 1.78 mm | - | - | - |
| 1778036719 | 14.44° C | 94% | 1007.8 hPa | 4.32 mm | - | - | - |
| 1778036416 | 14.44° C | 94% | 1007.9 hPa | 6.1 mm | - | - | - |
| 1778036112 | 14.44° C | 94% | 1008.1 hPa | 4.83 mm | - | - | - |
| 1778035506 | 14.44° C | 94% | 1008.1 hPa | 3.05 mm | - | - | - |
| 1778035201 | 14.44° C | 94% | 1007.8 hPa | 0 mm | - | - | - |
| 1778034898 | 14.44° C | 94% | 1008.3 hPa | 0 mm | - | - | - |
| 1778034595 | 14.44° C | 93% | 1008.2 hPa | 0 mm | - | - | - |
| 1778034293 | 14.44° C | 93% | 1008.2 hPa | 0 mm | - | - | - |
| 1778033991 | 14.44° C | 93% | 1008.2 hPa | 1.27 mm | - | - | - |
| 1778033688 | 14.44° C | 93% | 1008.3 hPa | 1.27 mm | - | - | - |
| 1778033385 | 14.44° C | 93% | 1008.5 hPa | 1.78 mm | - | - | - |
| 1778032477 | 15° C | 91% | 1008.7 hPa | 4.32 mm | - | - | - |
| 1778032174 | 15° C | 91% | 1008.6 hPa | 1.27 mm | - | - | - |
| 1778031871 | 15° C | 90% | 1008.4 hPa | 0 mm | - | - | - |
| 1778031567 | 15° C | 89% | 1008 hPa | 0 mm | - | - | - |
| 1778031265 | 15° C | 88% | 1007.7 hPa | 0 mm | - | - | - |
| 1778030961 | 15° C | 88% | 1007.5 hPa | 0 mm | - | - | - |
| 1778030658 | 15° C | 87% | 1007.6 hPa | 0 mm | - | - | - |
| 1778030355 | 15° C | 87% | 1007.2 hPa | 0 mm | - | - | - |
| 1778030052 | 15° C | 87% | 1007.3 hPa | 0 mm | - | - | - |
* Rain latest hour (hover to see other rain measurements)
** Current wind speed in m/s (hover to see current wind gust speed)